Time,TemperatureF,DewpointF,PressureIn,WindDirection,WindDirectionDegrees,WindSpeedMPH,WindSpeedGustMPH,Humidity,HourlyPrecipIn,Conditions,Clouds,dailyrainin,SolarRadiationWatts/m^2,SoftwareType,DateUTC
2013-09-01 00:01:00,68.4,66.6,29.82,SSE,158,0.2,1.2,94,0.00,RA,,0.00,0.0,WeatherDisplay:10.37,2013-09-01 04:01:00,
2013-09-01 00:02:00,68.4,66.6,29.82,SSE,158,0.3,2.3,94,0.00,RA,,0.00,0.0,WeatherDisplay:10.37,2013-09-01 04:02:00,
2013-09-01 00:07:00,68.3,66.5,29.81,SSE,158,0.0,0.0,94,0.00,RA,,0.00,0.0,WeatherDisplay:10.37,2013-09-01 04:07:00,
2013-09-01 00:12:00,68.4,66.6,29.81,SSE,158,0.0,0.0,94,0.00,CLR,,0.00,0.0,WeatherDisplay:10.37,2013-09-01 04:12:00,
2013-09-01 00:17:00,68.4,66.6,29.81,SSE,158,0.0,1.2,94,0.00,CLR,,0.00,0.0,WeatherDisplay:10.37,2013-09-01 04:17:00,
2013-09-01 00:22:00,68.5,67.0,29.81,SSE,158,0.3,2.3,95,0.00,CLR,,0.00,0.0,WeatherDisplay:10.37,2013-09-01 04:22:00,
2013-09-01 00:27:00,68.6,67.1,29.82,SSE,158,0.1,1.2,95,0.00,CLR,,0.00,0.0,WeatherDisplay:10.37,2013-09-01 04:27:00,
2013-09-01 00:32:00,68.6,67.1,29.81,SSE,159,0.0,0.0,95,0.00,CLR,,0.00,0.0,WeatherDisplay:10.37,2013-09-01 04:32:00,
2013-09-01 00:37:00,68.6,67.1,29.82,SSE,159,0.0,1.2,95,0.00,CLR,,0.00,0.0,WeatherDisplay:10.37,2013-09-01 04:37:00,
2013-09-01 00:42:00,68.7,66.9,29.82,SSE,159,0.9,2.3,94,0.00,CLR,,0.00,0.0,WeatherDisplay:10.37,2013-09-01 04:42:00,
2013-09-01 00:47:00,68.8,67.0,29.82,SSE,159,0.4,3.5,94,0.00,CLR,,0.00,0.0,WeatherDisplay:10.37,2013-09-01 04:47:00,
2013-09-01 00:52:00,68.8,67.0,29.82,SSE,159,0.0,0.0,94,0.00,CLR,,0.00,0.0,WeatherDisplay:10.37,2013-09-01 04:52:00,
2013-09-01 00:57:00,68.9,67.1,29.82,SSE,159,0.0,0.0,94,0.00,CLR,,0.00,0.0,WeatherDisplay:10.37,2013-09-01 04:57:00,
2013-09-01 01:02:00,69.0,67.2,29.82,SSE,159,0.1,1.0,94,0.00,CLR,,0.00,0.0,WeatherDisplay:10.37,2013-09-01 05:02:00,
2013-09-01 01:07:00,69.0,67.2,29.82,SSE,159,0.0,0.0,94,0.00,CLR,,0.00,0.0,WeatherDisplay:10.37,2013-09-01 05:07:00,
2013-09-01 01:12:00,69.1,67.3,29.82,SSE,159,0.0,0.0,94,0.00,CLR,,0.00,0.0,WeatherDisplay:10.37,2013-09-01 05:12:00,
2013-09-01 01:17:00,69.0,67.2,29.82,SSE,159,0.0,0.0,94,0.00,CLR,,0.00,0.0,WeatherDisplay:10.37,2013-09-01 05:17:00,
2013-09-01 01:22:00,69.0,67.2,29.81,SSE,159,0.0,0.0,94,0.00,CLR,,0.00,0.0,WeatherDisplay:10.37,2013-09-01 05:22:00,
2013-09-01 01:27:00,69.0,67.2,29.82,SSE,159,0.0,0.0,94,0.01,RA,,0.01,0.0,WeatherDisplay:10.37,2013-09-01 05:27:00,
2013-09-01 01:32:00,69.0,67.2,29.82,SSE,159,0.0,0.0,94,0.02,RA,,0.02,0.0,WeatherDisplay:10.37,2013-09-01 05:32:00,
2013-09-01 01:37:00,68.9,67.1,29.82,SSE,159,0.0,0.0,94,0.02,RA,,0.02,0.0,WeatherDisplay:10.37,2013-09-01 05:37:00,
2013-09-01 01:42:00,68.9,67.1,29.82,SSE,159,0.0,0.0,94,0.02,,,0.02,0.0,WeatherDisplay:10.37,2013-09-01 05:42:00,
2013-09-01 01:47:00,68.8,67.0,29.81,SSE,159,0.0,0.0,94,0.02,CLR,,0.02,0.0,WeatherDisplay:10.37,2013-09-01 05:47:00,
2013-09-01 01:52:00,68.8,67.0,29.81,SSE,159,0.0,0.0,94,0.02,CLR,,0.02,0.0,WeatherDisplay:10.37,2013-09-01 05:52:00,
2013-09-01 01:57:00,68.8,67.0,29.81,SSE,159,0.0,0.0,94,0.02,CLR,,0.02,0.0,WeatherDisplay:10.37,2013-09-01 05:57:00,
2013-09-01 02:02:00,68.7,66.9,29.81,SSE,159,0.0,0.0,94,0.02,CLR,,0.02,0.0,WeatherDisplay:10.37,2013-09-01 06:02:00,
2013-09-01 02:07:00,68.6,66.8,29.81,SSE,159,0.0,0.0,94,0.02,CLR,,0.02,0.0,WeatherDisplay:10.37,2013-09-01 06:07:00,
2013-09-01 02:12:00,68.6,66.8,29.81,SSE,159,0.0,0.0,94,0.02,CLR,,0.02,0.0,WeatherDisplay:10.37,2013-09-01 06:12:00,
2013-09-01 02:17:00,68.6,66.8,29.81,SSE,159,0.1,0.0,94,0.02,CLR,,0.02,0.0,WeatherDisplay:10.37,2013-09-01 06:17:00,
2013-09-01 02:22:00,68.5,66.7,29.81,SSE,159,0.1,0.0,94,0.02,CLR,,0.02,0.0,WeatherDisplay:10.37,2013-09-01 06:22:00,
2013-09-01 02:27:00,68.5,66.7,29.81,SSE,159,0.0,0.0,94,0.01,CLR,,0.02,0.0,WeatherDisplay:10.37,2013-09-01 06:27:00,
2013-09-01 02:32:00,68.6,67.1,29.81,SSE,159,0.0,0.0,95,0.00,CLR,,0.02,0.0,WeatherDisplay:10.37,2013-09-01 06:32:00,
2013-09-01 02:37:00,68.6,67.1,29.81,SSE,159,0.0,0.0,95,0.00,CLR,,0.02,0.0,WeatherDisplay:10.37,2013-09-01 06:37:00,
2013-09-01 02:42:00,68.6,67.1,29.81,SSE,159,0.0,0.0,95,0.00,CLR,,0.02,0.0,WeatherDisplay:10.37,2013-09-01 06:42:00,
2013-09-01 02:48:00,68.6,67.1,29.81,SSE,159,0.0,0.0,95,0.00,CLR,,0.02,0.0,WeatherDisplay:10.37,2013-09-01 06:48:00,
2013-09-01 02:52:00,68.6,67.1,29.81,SSE,159,0.0,0.0,95,0.00,CLR,,0.02,0.0,WeatherDisplay:10.37,2013-09-01 06:52:00,
2013-09-01 02:57:00,68.6,67.1,29.81,SSE,159,0.0,0.0,95,0.00,CLR,,0.02,0.0,WeatherDisplay:10.37,2013-09-01 06:57:00,
2013-09-01 03:02:00,68.6,67.1,29.81,SSE,159,0.0,0.0,95,0.00,CLR,,0.02,0.0,WeatherDisplay:10.37,2013-09-01 07:02:00,
2013-09-01 03:07:00,68.6,67.1,29.81,SSE,159,0.0,0.0,95,0.00,CLR,,0.02,0.0,WeatherDisplay:10.37,2013-09-01 07:07:00,
2013-09-01 03:13:00,68.6,67.1,29.81,SSE,159,0.0,0.0,95,0.00,CLR,,0.02,0.0,WeatherDisplay:10.37,2013-09-01 07:13:00,
2013-09-01 03:18:00,68.6,67.1,29.81,SSE,159,0.0,0.0,95,0.00,CLR,,0.02,0.0,WeatherDisplay:10.37,2013-09-01 07:18:00,
2013-09-01 03:23:00,68.6,67.1,29.81,SSE,159,0.0,0.0,95,0.00,CLR,,0.02,0.0,WeatherDisplay:10.37,2013-09-01 07:23:00,
2013-09-01 03:28:00,68.5,67.0,29.81,SSE,159,0.0,0.0,95,0.00,CLR,,0.02,0.0,WeatherDisplay:10.37,2013-09-01 07:28:00,
2013-09-01 03:33:00,68.5,67.0,29.81,SSE,159,0.0,0.0,95,0.00,CLR,,0.02,0.0,WeatherDisplay:10.37,2013-09-01 07:33:00,
2013-09-01 03:38:00,68.5,67.0,29.82,SSE,159,0.0,0.0,95,0.00,CLR,,0.02,0.0,WeatherDisplay:10.37,2013-09-01 07:38:00,
2013-09-01 03:43:00,68.5,67.0,29.81,SSE,159,0.0,0.0,95,0.00,CLR,,0.02,0.0,WeatherDisplay:10.37,2013-09-01 07:43:00,
2013-09-01 03:48:00,68.5,67.0,29.81,SSE,159,0.0,0.0,95,0.00,CLR,,0.02,0.0,WeatherDisplay:10.37,2013-09-01 07:48:00,
2013-09-01 03:53:00,68.4,66.9,29.81,SSE,159,0.0,1.2,95,0.00,CLR,,0.02,0.0,WeatherDisplay:10.37,2013-09-01 07:53:00,
2013-09-01 03:58:00,68.4,66.9,29.81,SSE,159,0.0,0.0,95,0.00,CLR,,0.02,0.0,WeatherDisplay:10.37,2013-09-01 07:58:00,
2013-09-01 04:03:00,68.4,66.9,29.81,SSE,159,0.0,0.0,95,0.00,CLR,,0.02,0.0,WeatherDisplay:10.37,2013-09-01 08:03:00,
2013-09-01 04:08:00,68.3,66.8,29.81,SSE,159,0.0,0.0,95,0.00,CLR,,0.02,0.0,WeatherDisplay:10.37,2013-09-01 08:08:00,
2013-09-01 04:13:00,68.3,66.8,29.81,SSE,159,0.0,0.0,95,0.00,CLR,,0.02,0.0,WeatherDisplay:10.37,2013-09-01 08:13:00,
2013-09-01 04:18:00,68.3,66.8,29.81,SSE,159,0.0,0.0,95,0.00,CLR,,0.02,0.0,WeatherDisplay:10.37,2013-09-01 08:18:00,
2013-09-01 04:23:00,68.3,66.8,29.82,SSE,159,0.0,0.0,95,0.00,CLR,,0.02,0.0,WeatherDisplay:10.37,2013-09-01 08:23:00,
2013-09-01 04:28:00,68.2,66.7,29.82,SSE,159,0.0,0.0,95,0.00,CLR,,0.02,0.0,WeatherDisplay:10.37,2013-09-01 08:28:00,
2013-09-01 04:33:00,68.2,66.7,29.81,SSE,159,0.0,0.0,95,0.00,CLR,,0.02,0.0,WeatherDisplay:10.37,2013-09-01 08:33:00,
2013-09-01 04:38:00,68.1,66.6,29.82,SSE,159,0.0,0.0,95,0.00,CLR,,0.02,0.0,WeatherDisplay:10.37,2013-09-01 08:38:00,
2013-09-01 04:43:00,68.0,66.5,29.82,SSE,159,0.0,0.0,95,0.00,CLR,,0.02,0.0,WeatherDisplay:10.37,2013-09-01 08:43:00,
2013-09-01 04:48:00,67.9,66.4,29.82,SSE,159,0.0,0.0,95,0.00,CLR,,0.02,0.0,WeatherDisplay:10.37,2013-09-01 08:48:00,
2013-09-01 04:53:00,67.8,66.3,29.82,SSE,159,0.0,0.0,95,0.00,CLR,,0.02,0.0,WeatherDisplay:10.37,2013-09-01 08:53:00,
2013-09-01 04:58:00,67.8,66.3,29.82,SSE,159,0.0,0.0,95,0.00,CLR,,0.02,0.0,WeatherDisplay:10.37,2013-09-01 08:58:00,
2013-09-01 05:03:00,67.7,66.2,29.82,SSE,159,0.0,0.0,95,0.00,CLR,,0.02,0.0,WeatherDisplay:10.37,2013-09-01 09:03:00,
2013-09-01 05:08:00,67.6,66.1,29.82,SSE,159,0.0,0.0,95,0.00,CLR,,0.02,0.0,WeatherDisplay:10.37,2013-09-01 09:08:00,
2013-09-01 05:13:00,67.5,66.0,29.83,SSE,159,0.0,0.0,95,0.00,CLR,,0.02,0.0,WeatherDisplay:10.37,2013-09-01 09:13:00,
2013-09-01 05:18:00,67.5,66.0,29.83,SSE,159,0.0,0.0,95,0.00,CLR,,0.02,0.0,WeatherDisplay:10.37,2013-09-01 09:18:00,
2013-09-01 05:23:00,67.4,65.9,29.83,SSE,159,0.0,0.0,95,0.00,CLR,,0.02,0.0,WeatherDisplay:10.37,2013-09-01 09:23:00,
2013-09-01 05:28:00,67.5,66.0,29.83,SSE,159,0.0,0.0,95,0.00,CLR,,0.02,0.0,WeatherDisplay:10.37,2013-09-01 09:28:00,
2013-09-01 05:33:00,67.5,66.0,29.83,SSE,159,0.0,0.0,95,0.00,CLR,,0.02,0.0,WeatherDisplay:10.37,2013-09-01 09:33:00,
2013-09-01 05:38:00,67.4,65.9,29.83,SSE,159,0.0,0.0,95,0.00,CLR,,0.02,0.0,WeatherDisplay:10.37,2013-09-01 09:38:00,
2013-09-01 05:43:00,67.4,65.9,29.84,SSE,159,0.0,0.0,95,0.00,CLR,,0.02,0.0,WeatherDisplay:10.37,2013-09-01 09:43:00,
2013-09-01 05:48:00,67.4,65.9,29.84,SSE,159,0.0,0.0,95,0.00,CLR,,0.02,0.0,WeatherDisplay:10.37,2013-09-01 09:48:00,
2013-09-01 05:53:00,67.4,65.9,29.84,SSE,159,0.0,0.0,95,0.00,CLR,,0.02,0.0,WeatherDisplay:10.37,2013-09-01 09:53:00,
2013-09-01 05:58:00,67.4,65.9,29.84,SSE,159,0.0,1.2,95,0.00,CLR,,0.02,0.0,WeatherDisplay:10.37,2013-09-01 09:58:00,
2013-09-01 06:03:00,67.5,66.0,29.84,SSE,159,0.7,2.3,95,0.00,CLR,,0.02,0.0,WeatherDisplay:10.37,2013-09-01 10:03:00,
2013-09-01 06:08:00,67.5,66.0,29.84,SSE,159,0.0,0.0,95,0.00,CLR,,0.02,0.0,WeatherDisplay:10.37,2013-09-01 10:08:00,
2013-09-01 06:13:00,67.6,66.1,29.83,SSE,157,1.8,3.5,95,0.00,CLR,,0.02,0.0,WeatherDisplay:10.37,2013-09-01 10:13:00,
2013-09-01 06:18:00,67.5,66.0,29.83,SSE,155,0.5,2.3,95,0.00,CLR,,0.02,0.0,WeatherDisplay:10.37,2013-09-01 10:18:00,
2013-09-01 06:23:00,67.3,65.8,29.84,SSE,155,0.0,0.0,95,0.00,CLR,,0.02,0.0,WeatherDisplay:10.37,2013-09-01 10:23:00,
2013-09-01 06:28:00,67.2,65.7,29.84,SSE,155,0.0,0.0,95,0.00,CLR,,0.02,0.0,WeatherDisplay:10.37,2013-09-01 10:28:00,
2013-09-01 06:33:00,67.1,65.6,29.84,SSE,155,0.0,0.0,95,0.00,CLR,,0.02,5.7,WeatherDisplay:10.37,2013-09-01 10:33:00,
2013-09-01 06:38:00,67.0,65.5,29.85,SSE,155,0.0,0.0,95,0.00,OVC,,0.02,7.9,WeatherDisplay:10.37,2013-09-01 10:38:00,
2013-09-01 06:43:00,67.0,65.5,29.85,SSE,155,0.0,0.0,95,0.00,OVC,,0.02,7.9,WeatherDisplay:10.37,2013-09-01 10:43:00,
2013-09-01 06:48:00,67.1,65.6,29.85,SSE,155,0.0,0.0,95,0.00,OVC,,0.02,12.4,WeatherDisplay:10.37,2013-09-01 10:48:00,
2013-09-01 06:53:00,67.1,65.6,29.84,SSE,155,0.0,0.0,95,0.00,OVC,,0.02,13.6,WeatherDisplay:10.37,2013-09-01 10:53:00,
2013-09-01 06:58:00,67.2,65.7,29.85,SSE,155,0.0,0.0,95,0.00,OVC,,0.02,15.8,WeatherDisplay:10.37,2013-09-01 10:58:00,
2013-09-01 07:03:00,67.3,65.8,29.85,SSE,155,0.0,0.0,95,0.00,OVC,,0.02,20.3,WeatherDisplay:10.37,2013-09-01 11:03:00,
2013-09-01 07:08:00,67.3,65.8,29.85,SSE,155,0.0,1.2,95,0.00,OVC,,0.02,26.0,WeatherDisplay:10.37,2013-09-01 11:08:00,
2013-09-01 07:13:00,67.4,65.9,29.85,SSE,155,0.0,0.0,95,0.00,OVC,,0.02,45.2,WeatherDisplay:10.37,2013-09-01 11:13:00,
2013-09-01 07:18:00,67.4,65.9,29.85,SSE,155,0.0,0.0,95,0.00,OVC,,0.02,45.2,WeatherDisplay:10.37,2013-09-01 11:18:00,
2013-09-01 07:23:00,67.5,66.0,29.85,SSE,155,0.0,0.0,95,0.00,OVC,,0.02,49.7,WeatherDisplay:10.37,2013-09-01 11:23:00,
2013-09-01 07:28:00,67.6,66.1,29.85,SSE,155,0.0,0.0,95,0.00,OVC,,0.02,47.5,WeatherDisplay:10.37,2013-09-01 11:28:00,
2013-09-01 07:33:00,67.6,66.1,29.85,SSE,155,0.0,0.0,95,0.00,OVC,,0.02,65.5,WeatherDisplay:10.37,2013-09-01 11:33:00,
2013-09-01 07:38:00,67.7,66.2,29.86,SSE,155,0.0,0.0,95,0.00,BKN,,0.02,94.9,WeatherDisplay:10.37,2013-09-01 11:38:00,
2013-09-01 07:43:00,68.1,66.9,29.85,SSE,155,0.0,0.0,96,0.00,SCT,,0.02,151.4,WeatherDisplay:10.37,2013-09-01 11:43:00,
2013-09-01 07:48:00,68.6,67.4,29.85,SSE,155,0.0,0.0,96,0.00,SCT,,0.02,210.2,WeatherDisplay:10.37,2013-09-01 11:48:00,
2013-09-01 07:53:00,69.0,67.8,29.85,SSE,155,0.0,0.0,96,0.00,SCT,,0.02,115.3,WeatherDisplay:10.37,2013-09-01 11:53:00,
2013-09-01 07:58:00,69.3,68.1,29.85,SSE,155,0.0,0.0,96,0.00,OVC,,0.02,83.6,WeatherDisplay:10.37,2013-09-01 11:58:00,
2013-09-01 08:03:00,69.4,68.2,29.85,SSE,155,0.0,0.0,96,0.00,BKN,,0.02,105.1,WeatherDisplay:10.37,2013-09-01 12:03:00,
2013-09-01 08:08:00,69.6,68.4,29.85,SSE,155,0.0,0.0,96,0.00,BKN,,0.02,196.6,WeatherDisplay:10.37,2013-09-01 12:08:00,
2013-09-01 08:13:00,70.0,68.8,29.85,SSE,155,0.1,0.0,96,0.00,SCT,,0.02,226.0,WeatherDisplay:10.37,2013-09-01 12:13:00,
2013-09-01 08:18:00,70.3,69.1,29.85,SSE,155,0.0,0.0,96,0.00,SCT,,0.02,259.9,WeatherDisplay:10.37,2013-09-01 12:18:00,
2013-09-01 08:23:00,70.6,69.4,29.85,SSE,155,0.0,0.0,96,0.00,SCT,,0.02,220.3,WeatherDisplay:10.37,2013-09-01 12:23:00,
2013-09-01 08:28:00,70.6,69.4,29.85,SSE,155,0.0,0.0,96,0.00,BKN,,0.02,165.0,WeatherDisplay:10.37,2013-09-01 12:28:00,
2013-09-01 08:33:00,70.8,69.6,29.85,SSE,155,0.0,0.0,96,0.00,BKN,,0.02,183.1,WeatherDisplay:10.37,2013-09-01 12:33:00,
2013-09-01 08:38:00,70.8,69.6,29.85,SSE,155,0.0,0.0,96,0.00,BKN,,0.02,183.1,WeatherDisplay:10.37,2013-09-01 12:38:00,
2013-09-01 08:43:00,71.0,69.8,29.85,SSE,155,0.0,0.0,96,0.00,BKN,,0.02,178.5,WeatherDisplay:10.37,2013-09-01 12:43:00,
2013-09-01 08:48:00,71.1,69.6,29.85,SSE,155,0.0,0.0,95,0.00,BKN,,0.02,212.4,WeatherDisplay:10.37,2013-09-01 12:48:00,
2013-09-01 08:53:00,71.2,70.0,29.86,SSE,155,0.0,1.0,96,0.00,BKN,,0.02,201.1,WeatherDisplay:10.37,2013-09-01 12:53:00,
2013-09-01 08:58:00,71.3,69.8,29.86,SSE,155,0.0,0.0,95,0.00,BKN,,0.02,194.4,WeatherDisplay:10.37,2013-09-01 12:58:00,
2013-09-01 09:03:00,71.4,69.9,29.86,SSE,155,0.0,0.0,95,0.00,BKN,,0.02,201.1,WeatherDisplay:10.37,2013-09-01 13:03:00,
2013-09-01 09:08:00,71.6,70.1,29.86,SSE,155,0.0,0.0,95,0.00,BKN,,0.02,246.3,WeatherDisplay:10.37,2013-09-01 13:08:00,
2013-09-01 09:14:00,71.8,70.3,29.86,SSE,155,0.0,0.0,95,0.00,BKN,,0.02,244.1,WeatherDisplay:10.37,2013-09-01 13:14:00,
2013-09-01 09:19:00,72.1,70.6,29.86,SSE,155,0.0,0.0,95,0.00,BKN,,0.02,220.3,WeatherDisplay:10.37,2013-09-01 13:19:00,
2013-09-01 09:24:00,72.2,70.7,29.86,SSE,155,0.0,1.0,95,0.00,BKN,,0.02,272.3,WeatherDisplay:10.37,2013-09-01 13:24:00,
2013-09-01 09:29:00,72.4,70.9,29.86,SSE,155,0.0,0.0,95,0.00,BKN,,0.02,307.4,WeatherDisplay:10.37,2013-09-01 13:29:00,
2013-09-01 09:34:00,72.6,70.8,29.86,SSE,155,0.0,0.0,94,0.00,BKN,,0.02,285.9,WeatherDisplay:10.37,2013-09-01 13:34:00,
2013-09-01 09:39:00,72.9,71.1,29.86,SSE,155,0.0,0.0,94,0.00,BKN,,0.02,264.4,WeatherDisplay:10.37,2013-09-01 13:39:00,
2013-09-01 09:44:00,73.1,71.0,29.86,SSE,155,0.0,0.0,93,0.00,SCT,,0.02,355.9,WeatherDisplay:10.37,2013-09-01 13:44:00,
2013-09-01 09:49:00,73.4,71.3,29.86,SSE,155,0.0,0.0,93,0.00,SCT,,0.02,383.1,WeatherDisplay:10.37,2013-09-01 13:49:00,
2013-09-01 09:54:00,73.7,71.5,29.86,SSE,155,0.1,1.0,93,0.00,SCT,,0.02,447.5,WeatherDisplay:10.37,2013-09-01 13:54:00,
2013-09-01 09:59:00,74.0,71.2,29.86,SSE,155,0.0,0.0,91,0.00,SCT,,0.02,306.2,WeatherDisplay:10.37,2013-09-01 13:59:00,
2013-09-01 10:04:00,74.2,71.1,29.86,SSE,155,0.0,0.0,90,0.00,BKN,,0.02,278.0,WeatherDisplay:10.37,2013-09-01 14:04:00,
2013-09-01 10:09:00,74.1,70.6,29.86,SSE,155,0.0,0.0,89,0.00,BKN,,0.02,282.5,WeatherDisplay:10.37,2013-09-01 14:09:00,
2013-09-01 10:14:00,74.2,71.1,29.86,SSE,155,0.0,0.0,90,0.00,BKN,,0.02,267.8,WeatherDisplay:10.37,2013-09-01 14:14:00,
2013-09-01 10:19:00,74.3,70.8,29.86,SSE,155,0.0,0.0,89,0.00,BKN,,0.02,258.8,WeatherDisplay:10.37,2013-09-01 14:19:00,
2013-09-01 10:24:00,74.4,70.9,29.86,SSE,155,0.0,0.0,89,0.00,BKN,,0.02,254.3,WeatherDisplay:10.37,2013-09-01 14:24:00,
2013-09-01 10:29:00,74.5,71.0,29.86,SSE,155,0.0,0.0,89,0.00,BKN,,0.02,296.1,WeatherDisplay:10.37,2013-09-01 14:29:00,
2013-09-01 10:34:00,74.8,70.3,29.86,SSE,155,0.0,0.0,86,0.00,BKN,,0.02,369.5,WeatherDisplay:10.37,2013-09-01 14:34:00,
2013-09-01 10:39:00,75.2,70.4,29.86,SSE,155,0.0,1.2,85,0.00,SCT,,0.02,353.7,WeatherDisplay:10.37,2013-09-01 14:39:00,
2013-09-01 10:44:00,75.4,70.2,29.86,SSE,155,0.0,1.2,84,0.00,BKN,,0.02,348.0,WeatherDisplay:10.37,2013-09-01 14:44:00,
2013-09-01 10:49:00,75.9,71.1,29.86,SSE,155,0.0,1.2,85,0.00,FEW,,0.02,445.2,WeatherDisplay:10.37,2013-09-01 14:49:00,
2013-09-01 10:54:00,76.2,70.7,29.86,SSE,155,0.0,0.0,83,0.00,SCT,,0.02,615.9,WeatherDisplay:10.37,2013-09-01 14:54:00,
2013-09-01 10:59:00,76.6,71.4,29.86,SSE,155,0.0,0.0,84,0.00,FEW,,0.02,569.5,WeatherDisplay:10.37,2013-09-01 14:59:00,
2013-09-01 11:04:00,77.1,72.2,29.86,SSE,155,0.0,0.0,85,0.00,CLR,,0.02,848.6,WeatherDisplay:10.37,2013-09-01 15:04:00,
2013-09-01 11:09:00,77.2,70.9,29.86,SSE,155,0.0,1.2,81,0.00,CLR,,0.02,775.2,WeatherDisplay:10.37,2013-09-01 15:09:00,
2013-09-01 11:14:00,77.8,72.6,29.86,SSE,155,0.1,1.2,84,0.00,CLR,,0.02,772.9,WeatherDisplay:10.37,2013-09-01 15:14:00,
2013-09-01 11:19:00,78.1,72.2,29.86,SSE,155,0.0,0.0,82,0.00,FEW,,0.02,518.7,WeatherDisplay:10.37,2013-09-01 15:19:00,
2013-09-01 11:24:00,78.3,72.3,29.86,SSE,155,0.0,0.0,82,0.00,SCT,,0.02,424.9,WeatherDisplay:10.37,2013-09-01 15:24:00,
2013-09-01 11:29:00,78.1,72.2,29.86,SSE,155,0.0,0.0,82,0.00,BKN,,0.02,337.9,WeatherDisplay:10.37,2013-09-01 15:29:00,
2013-09-01 11:34:00,77.8,71.9,29.86,SSE,155,1.4,3.5,82,0.00,BKN,,0.02,272.3,WeatherDisplay:10.37,2013-09-01 15:34:00,
2013-09-01 11:39:00,77.6,71.3,29.86,SSE,155,0.0,0.0,81,0.00,BKN,,0.02,226.0,WeatherDisplay:10.37,2013-09-01 15:39:00,
2013-09-01 11:44:00,77.5,71.2,29.86,SSE,155,0.1,1.2,81,0.00,BKN,,0.02,298.3,WeatherDisplay:10.37,2013-09-01 15:44:00,
2013-09-01 11:49:00,77.6,72.0,29.86,SSE,155,0.1,1.2,83,0.00,BKN,,0.02,627.1,WeatherDisplay:10.37,2013-09-01 15:49:00,
2013-09-01 11:54:00,77.7,72.1,29.85,SSE,155,0.0,0.0,83,0.00,SCT,,0.02,424.9,WeatherDisplay:10.37,2013-09-01 15:54:00,
2013-09-01 11:59:00,77.8,72.2,29.85,SSE,155,0.0,0.0,83,0.00,SCT,,0.02,586.5,WeatherDisplay:10.37,2013-09-01 15:59:00,
2013-09-01 12:04:00,78.3,73.4,29.85,SSE,155,0.0,0.0,85,0.00,FEW,,0.02,815.9,WeatherDisplay:10.37,2013-09-01 16:04:00,
2013-09-01 12:09:00,78.7,72.4,29.85,SSE,155,0.1,1.2,81,0.00,FEW,,0.02,818.1,WeatherDisplay:10.37,2013-09-01 16:09:00,
2013-09-01 12:14:00,79.1,73.5,29.85,SSE,155,0.1,1.2,83,0.00,FEW,,0.02,587.6,WeatherDisplay:10.37,2013-09-01 16:14:00,
2013-09-01 12:19:00,79.0,71.9,29.85,SSE,155,0.0,0.0,79,0.00,SCT,,0.02,437.3,WeatherDisplay:10.37,2013-09-01 16:19:00,
2013-09-01 12:24:00,79.0,72.7,29.85,SSE,155,0.1,1.2,81,0.00,SCT,,0.02,450.9,WeatherDisplay:10.37,2013-09-01 16:24:00,
2013-09-01 12:29:00,79.1,71.3,29.84,SSE,155,0.1,0.0,77,0.00,BKN,,0.02,424.9,WeatherDisplay:10.37,2013-09-01 16:29:00,
2013-09-01 12:34:00,79.1,72.4,29.84,SSE,155,0.0,0.0,80,0.00,BKN,,0.02,306.2,WeatherDisplay:10.37,2013-09-01 16:34:00,
2013-09-01 12:39:00,79.1,72.4,29.84,SSE,155,0.0,1.2,80,0.00,BKN,,0.02,371.8,WeatherDisplay:10.37,2013-09-01 16:39:00,
2013-09-01 12:44:00,79.0,72.7,29.84,SSE,155,0.0,0.0,81,0.00,SCT,,0.02,579.7,WeatherDisplay:10.37,2013-09-01 16:44:00,
2013-09-01 12:49:00,78.9,72.9,29.84,SSE,155,0.0,0.0,82,0.00,BKN,,0.02,330.0,WeatherDisplay:10.37,2013-09-01 16:49:00,
2013-09-01 12:54:00,78.7,71.3,29.84,SSE,155,0.0,0.0,78,0.00,BKN,,0.02,319.8,WeatherDisplay:10.37,2013-09-01 16:54:00,
2013-09-01 12:59:00,78.6,70.8,29.84,SSE,155,0.0,1.2,77,0.00,BKN,,0.02,414.7,WeatherDisplay:10.37,2013-09-01 16:59:00,
2013-09-01 13:04:00,78.6,71.2,29.84,SSE,155,0.0,0.0,78,0.00,BKN,,0.02,363.9,WeatherDisplay:10.37,2013-09-01 17:04:00,
2013-09-01 13:09:00,78.7,72.4,29.83,SSE,155,0.1,1.2,81,0.00,BKN,,0.02,372.9,WeatherDisplay:10.37,2013-09-01 17:09:00,
2013-09-01 13:14:00,78.9,71.8,29.83,SSE,155,0.1,1.2,79,0.00,BKN,,0.02,560.5,WeatherDisplay:10.37,2013-09-01 17:14:00,
2013-09-01 13:19:00,79.2,72.1,29.83,SSE,155,0.1,1.2,79,0.00,BKN,,0.02,391.0,WeatherDisplay:10.37,2013-09-01 17:19:00,
2013-09-01 13:25:00,79.4,72.3,29.84,SSE,155,0.0,0.0,79,0.00,BKN,,0.02,325.4,WeatherDisplay:10.37,2013-09-01 17:25:00,
2013-09-01 13:30:00,79.5,72.8,29.84,SSE,155,0.0,0.0,80,0.00,BKN,,0.02,359.3,WeatherDisplay:10.37,2013-09-01 17:30:00,
2013-09-01 13:35:00,79.6,72.5,29.84,SSE,155,0.0,0.0,79,0.00,BKN,,0.02,262.2,WeatherDisplay:10.37,2013-09-01 17:35:00,
2013-09-01 13:40:00,79.6,72.1,29.83,SSE,155,0.0,0.0,78,0.00,BKN,,0.02,355.9,WeatherDisplay:10.37,2013-09-01 17:40:00,
2013-09-01 13:45:00,79.7,71.8,29.83,SSE,155,0.0,0.0,77,0.00,SCT,,0.02,484.8,WeatherDisplay:10.37,2013-09-01 17:45:00,
2013-09-01 13:50:00,79.7,72.6,29.83,SSE,155,0.0,0.0,79,0.00,BKN,,0.02,440.7,WeatherDisplay:10.37,2013-09-01 17:50:00,
2013-09-01 13:55:00,79.7,73.7,29.83,SSE,155,0.0,0.0,82,0.00,SCT,,0.02,409.1,WeatherDisplay:10.37,2013-09-01 17:55:00,
2013-09-01 14:00:00,79.6,72.9,29.83,SSE,155,0.0,0.0,80,0.00,BKN,,0.02,345.8,WeatherDisplay:10.37,2013-09-01 18:00:00,
2013-09-01 14:05:00,79.6,72.5,29.83,SSE,155,0.0,0.0,79,0.00,BKN,,0.02,351.4,WeatherDisplay:10.37,2013-09-01 18:05:00,
2013-09-01 14:10:00,79.9,73.2,29.83,SSE,155,0.0,0.0,80,0.00,BKN,,0.02,375.2,WeatherDisplay:10.37,2013-09-01 18:10:00,
2013-09-01 14:15:00,80.0,73.3,29.83,SSE,155,0.0,0.0,80,0.00,BKN,,0.02,314.1,WeatherDisplay:10.37,2013-09-01 18:15:00,
2013-09-01 14:20:00,79.9,72.8,29.83,SSE,155,0.7,3.5,79,0.00,BKN,,0.02,252.0,WeatherDisplay:10.37,2013-09-01 18:20:00,
2013-09-01 14:25:00,79.7,73.3,29.83,SSE,155,0.0,0.0,81,0.00,BKN,,0.02,222.6,WeatherDisplay:10.37,2013-09-01 18:25:00,
2013-09-01 14:30:00,79.5,73.5,29.83,SSE,155,0.0,0.0,82,0.00,OVC,,0.02,220.3,WeatherDisplay:10.37,2013-09-01 18:30:00,
2013-09-01 14:35:00,79.1,72.8,29.83,SSE,155,0.0,1.2,81,0.00,OVC,,0.02,204.5,WeatherDisplay:10.37,2013-09-01 18:35:00,
2013-09-01 14:40:00,78.9,72.6,29.83,SSE,155,0.0,0.0,81,0.00,BKN,,0.02,252.0,WeatherDisplay:10.37,2013-09-01 18:40:00,
2013-09-01 14:45:00,79.0,72.7,29.83,SSE,155,0.0,0.0,81,0.00,BKN,,0.02,361.6,WeatherDisplay:10.37,2013-09-01 18:45:00,
2013-09-01 14:50:00,79.4,73.4,29.83,SSE,155,0.0,0.0,82,0.00,BKN,,0.02,371.8,WeatherDisplay:10.37,2013-09-01 18:50:00,
2013-09-01 14:55:00,79.7,73.3,29.82,SSE,155,0.2,1.2,81,0.00,FEW,,0.02,914.2,WeatherDisplay:10.37,2013-09-01 18:55:00,
2013-09-01 15:00:00,80.4,73.7,29.82,SSE,155,0.0,0.0,80,0.00,CLR,,0.02,757.1,WeatherDisplay:10.37,2013-09-01 19:00:00,
2013-09-01 15:05:00,81.2,74.1,29.82,SSE,155,0.0,1.2,79,0.00,FEW,,0.02,736.8,WeatherDisplay:10.37,2013-09-01 19:05:00,
2013-09-01 15:10:00,81.9,73.2,29.82,SSE,155,0.0,0.0,75,0.00,CLR,,0.02,749.2,WeatherDisplay:10.37,2013-09-01 19:10:00,
2013-09-01 15:15:00,82.3,73.6,29.81,SSE,155,1.1,3.5,75,0.00,CLR,,0.02,760.5,WeatherDisplay:10.37,2013-09-01 19:15:00,
2013-09-01 15:20:00,82.7,75.1,29.81,SSE,155,0.0,1.0,78,0.00,CLR,,0.02,749.2,WeatherDisplay:10.37,2013-09-01 19:20:00,
2013-09-01 15:25:00,82.8,74.1,29.81,SSE,155,0.0,1.2,75,0.00,BKN,,0.02,202.3,WeatherDisplay:10.37,2013-09-01 19:25:00,
2013-09-01 15:30:00,82.6,74.3,29.81,SSE,155,0.1,1.2,76,0.00,SCT,,0.02,691.6,WeatherDisplay:10.37,2013-09-01 19:30:00,
2013-09-01 15:35:00,82.3,73.2,29.81,SSE,155,0.1,0.0,74,0.00,SCT,,0.02,736.8,WeatherDisplay:10.37,2013-09-01 19:35:00,
2013-09-01 15:40:00,82.6,73.5,29.81,SSE,155,0.0,0.0,74,0.00,CLR,,0.02,325.4,WeatherDisplay:10.37,2013-09-01 19:40:00,
2013-09-01 15:45:00,82.7,73.6,29.81,SSE,155,0.0,0.0,74,0.00,BKN,,0.02,301.7,WeatherDisplay:10.37,2013-09-01 19:45:00,
2013-09-01 15:50:00,82.7,74.0,29.81,SSE,155,0.0,0.0,75,0.00,BKN,,0.02,324.3,WeatherDisplay:10.37,2013-09-01 19:50:00,
2013-09-01 15:55:00,82.5,73.4,29.80,SSE,155,0.0,0.0,74,0.00,FEW,,0.02,194.4,WeatherDisplay:10.37,2013-09-01 19:55:00,
2013-09-01 16:01:00,82.1,73.0,29.80,SSE,155,0.0,0.0,74,0.00,BKN,,0.02,220.3,WeatherDisplay:10.37,2013-09-01 20:01:00,
2013-09-01 16:06:00,81.8,71.9,29.80,SSE,155,0.0,0.0,72,0.00,SCT,,0.02,387.6,WeatherDisplay:10.37,2013-09-01 20:06:00,
2013-09-01 16:11:00,82.1,73.8,29.80,SSE,155,0.0,0.0,76,0.00,SCT,,0.02,675.7,WeatherDisplay:10.37,2013-09-01 20:11:00,
2013-09-01 16:16:00,82.5,73.4,29.80,SSE,155,0.1,1.2,74,0.00,BKN,,0.02,226.0,WeatherDisplay:10.37,2013-09-01 20:16:00,
2013-09-01 16:21:00,82.5,71.7,29.80,SSE,155,0.0,0.0,70,0.00,BKN,,0.02,224.9,WeatherDisplay:10.37,2013-09-01 20:21:00,
2013-09-01 16:26:00,82.5,73.0,29.81,SSE,155,0.0,0.0,73,0.00,SCT,,0.02,355.9,WeatherDisplay:10.37,2013-09-01 20:26:00,
2013-09-01 16:31:00,82.6,74.3,29.81,SSE,155,0.0,0.0,76,0.00,SCT,,0.02,615.9,WeatherDisplay:10.37,2013-09-01 20:31:00,
2013-09-01 16:36:00,82.9,72.9,29.80,SSE,155,0.0,1.2,72,0.00,SCT,,0.02,282.5,WeatherDisplay:10.37,2013-09-01 20:36:00,
2013-09-01 16:41:00,83.4,74.2,29.80,SSE,155,0.0,0.0,74,0.00,CLR,,0.02,528.8,WeatherDisplay:10.37,2013-09-01 20:41:00,
2013-09-01 16:46:00,83.7,74.5,29.80,SSE,155,0.0,0.0,74,0.00,SCT,,0.02,254.3,WeatherDisplay:10.37,2013-09-01 20:46:00,
2013-09-01 16:51:00,83.4,73.8,29.80,SSE,155,0.0,1.2,73,0.00,BKN,,0.02,184.2,WeatherDisplay:10.37,2013-09-01 20:51:00,
2013-09-01 16:56:00,83.0,73.9,29.80,SSE,155,0.0,1.2,74,0.00,BKN,,0.02,201.1,WeatherDisplay:10.37,2013-09-01 20:56:00,
2013-09-01 17:01:00,82.7,73.6,29.80,SSE,155,0.0,0.0,74,0.00,BKN,,0.02,117.5,WeatherDisplay:10.37,2013-09-01 21:01:00,
2013-09-01 17:06:00,82.3,73.6,29.80,SSE,155,0.0,0.0,75,0.00,BKN,,0.02,87.0,WeatherDisplay:10.37,2013-09-01 21:06:00,
2013-09-01 17:11:00,81.5,72.8,29.81,SSE,155,0.0,0.0,75,0.00,BKN,,0.02,73.5,WeatherDisplay:10.37,2013-09-01 21:11:00,
2013-09-01 17:16:00,80.8,72.1,29.80,SSE,155,0.0,0.0,75,0.00,BKN,,0.02,70.1,WeatherDisplay:10.37,2013-09-01 21:16:00,
2013-09-01 17:21:00,80.4,72.9,29.81,SSE,155,0.0,0.0,78,0.00,BKN,,0.02,75.7,WeatherDisplay:10.37,2013-09-01 21:21:00,
2013-09-01 17:26:00,80.1,72.6,29.81,SSE,155,0.0,0.0,78,0.00,BKN,,0.02,83.6,WeatherDisplay:10.37,2013-09-01 21:26:00,
2013-09-01 17:31:00,79.7,73.0,29.81,SSE,155,0.0,0.0,80,0.00,BKN,,0.02,85.9,WeatherDisplay:10.37,2013-09-01 21:31:00,
2013-09-01 17:36:00,79.3,73.7,29.82,SSE,155,0.0,0.0,83,0.00,BKN,,0.02,63.3,WeatherDisplay:10.37,2013-09-01 21:36:00,
2013-09-01 17:41:00,78.9,73.3,29.82,SSE,155,0.0,0.0,83,0.00,OVC,,0.02,47.5,WeatherDisplay:10.37,2013-09-01 21:41:00,
2013-09-01 17:46:00,78.6,73.0,29.82,SSE,155,0.0,0.0,83,0.00,OVC,,0.02,70.1,WeatherDisplay:10.37,2013-09-01 21:46:00,
2013-09-01 17:51:00,78.4,73.2,29.82,SSE,155,0.4,4.0,84,0.00,SCT,,0.02,128.8,WeatherDisplay:10.37,2013-09-01 21:51:00,
2013-09-01 17:56:00,78.4,72.8,29.81,SSE,155,0.0,2.3,83,0.00,FEW,,0.02,154.8,WeatherDisplay:10.37,2013-09-01 21:56:00,
2013-09-01 18:01:00,78.6,73.4,29.81,SSE,155,0.0,0.0,84,0.00,FEW,,0.02,131.1,WeatherDisplay:10.37,2013-09-01 22:01:00,
2013-09-01 18:06:00,78.7,72.7,29.81,SSE,155,0.0,2.3,82,0.00,FEW,,0.02,120.9,WeatherDisplay:10.37,2013-09-01 22:06:00,
2013-09-01 18:11:00,78.8,72.8,29.81,SSE,155,0.0,0.0,82,0.00,FEW,,0.02,99.4,WeatherDisplay:10.37,2013-09-01 22:11:00,
2013-09-01 18:16:00,78.7,72.4,29.81,SSE,155,1.0,4.6,81,0.00,FEW,,0.02,73.5,WeatherDisplay:10.37,2013-09-01 22:16:00,
2013-09-01 18:21:00,78.6,72.3,29.81,SSE,155,0.1,1.0,81,0.00,FEW,,0.02,55.4,WeatherDisplay:10.37,2013-09-01 22:21:00,
2013-09-01 18:26:00,78.5,72.2,29.81,SSE,155,0.3,2.3,81,0.00,FEW,,0.02,47.5,WeatherDisplay:10.37,2013-09-01 22:26:00,
2013-09-01 18:31:00,78.3,72.0,29.82,SSE,155,0.1,1.2,81,0.00,FEW,,0.02,49.7,WeatherDisplay:10.37,2013-09-01 22:31:00,
2013-09-01 18:36:00,78.1,71.8,29.81,SSE,155,0.0,1.2,81,0.00,FEW,,0.02,52.0,WeatherDisplay:10.37,2013-09-01 22:36:00,
2013-09-01 18:41:00,78.0,71.7,29.81,SSE,155,0.0,0.0,81,0.00,FEW,,0.02,52.0,WeatherDisplay:10.37,2013-09-01 22:41:00,
2013-09-01 18:46:00,77.8,71.5,29.81,SSE,155,2.4,5.0,81,0.00,FEW,,0.02,49.7,WeatherDisplay:10.37,2013-09-01 22:46:00,
2013-09-01 18:51:00,77.4,71.1,29.81,SE,125,0.7,6.9,81,0.00,FEW,,0.02,41.8,WeatherDisplay:10.37,2013-09-01 22:51:00,
2013-09-01 18:56:00,77.1,70.8,29.81,SSE,154,3.2,5.8,81,0.00,FEW,,0.02,41.8,WeatherDisplay:10.37,2013-09-01 22:56:00,
2013-09-01 19:01:00,76.8,70.9,29.81,South,173,5.1,10.4,82,0.00,FEW,,0.02,37.3,WeatherDisplay:10.37,2013-09-01 23:01:00,
2013-09-01 19:06:00,76.1,68.7,29.81,SSW,204,5.0,9.2,78,0.00,FEW,,0.02,29.4,WeatherDisplay:10.37,2013-09-01 23:06:00,
2013-09-01 19:11:00,75.4,68.8,29.81,South,182,0.0,1.2,80,0.00,FEW,,0.02,21.5,WeatherDisplay:10.37,2013-09-01 23:11:00,
2013-09-01 19:16:00,74.8,68.2,29.80,South,180,0.9,4.0,80,0.00,FEW,,0.02,20.3,WeatherDisplay:10.37,2013-09-01 23:16:00,
2013-09-01 19:21:00,74.3,68.1,29.80,South,177,0.1,0.0,81,0.00,FEW,,0.02,13.6,WeatherDisplay:10.37,2013-09-01 23:21:00,
2013-09-01 19:26:00,73.9,68.1,29.80,South,177,0.0,0.0,82,0.00,FEW,,0.02,5.7,WeatherDisplay:10.37,2013-09-01 23:26:00,
2013-09-01 19:31:00,73.7,68.9,29.81,South,177,0.0,0.0,85,0.00,FEW,,0.02,0.0,WeatherDisplay:10.37,2013-09-01 23:31:00,
2013-09-01 19:36:00,73.3,68.5,29.81,SE,132,3.8,4.0,85,0.00,FEW,,0.02,0.0,WeatherDisplay:10.37,2013-09-01 23:36:00,
2013-09-01 19:41:00,72.7,67.9,29.81,East,101,1.5,4.0,85,0.00,FEW,,0.02,0.0,WeatherDisplay:10.37,2013-09-01 23:41:00,
2013-09-01 19:46:00,72.3,67.9,29.81,ESE,105,3.4,4.6,86,0.00,FEW,,0.02,0.0,WeatherDisplay:10.37,2013-09-01 23:46:00,
2013-09-01 19:51:00,71.9,67.8,29.81,ESE,115,4.5,4.6,87,0.00,FEW,,0.02,0.0,WeatherDisplay:10.37,2013-09-01 23:51:00,
2013-09-01 19:56:00,71.6,67.5,29.81,ESE,117,0.0,0.0,87,0.00,FEW,,0.02,0.0,WeatherDisplay:10.37,2013-09-01 23:56:00,
2013-09-01 20:01:00,71.4,67.7,29.81,ESE,117,0.0,0.0,88,0.00,FEW,,0.02,0.0,WeatherDisplay:10.37,2013-09-02 00:01:00,
2013-09-01 20:06:00,71.4,68.0,29.81,ESE,117,0.0,0.0,89,0.00,FEW,,0.02,0.0,WeatherDisplay:10.37,2013-09-02 00:06:00,
2013-09-01 20:11:00,71.2,67.8,29.81,ESE,117,0.2,1.2,89,0.00,FEW,,0.02,0.0,WeatherDisplay:10.37,2013-09-02 00:11:00,
2013-09-01 20:16:00,71.1,67.7,29.81,ESE,117,0.0,1.2,89,0.00,FEW,,0.02,0.0,WeatherDisplay:10.37,2013-09-02 00:16:00,
2013-09-01 20:22:00,71.0,67.6,29.81,ESE,117,0.0,0.0,89,0.00,FEW,,0.02,0.0,WeatherDisplay:10.37,2013-09-02 00:22:00,
2013-09-01 20:27:00,70.8,67.7,29.81,ESE,117,0.5,2.0,90,0.00,FEW,,0.02,0.0,WeatherDisplay:10.37,2013-09-02 00:27:00,
2013-09-01 20:32:00,70.7,67.6,29.81,ESE,119,1.7,5.8,90,0.00,FEW,,0.02,0.0,WeatherDisplay:10.37,2013-09-02 00:32:00,
2013-09-01 20:37:00,70.8,68.0,29.81,ESE,119,1.0,1.2,91,0.00,FEW,,0.02,0.0,WeatherDisplay:10.37,2013-09-02 00:37:00,
2013-09-01 20:42:00,70.8,68.0,29.81,ESE,118,1.6,4.0,91,0.00,FEW,,0.02,0.0,WeatherDisplay:10.37,2013-09-02 00:42:00,
2013-09-01 20:47:00,71.0,68.2,29.81,ESE,119,2.6,4.0,91,0.00,FEW,,0.02,0.0,WeatherDisplay:10.37,2013-09-02 00:47:00,
2013-09-01 20:52:00,71.0,68.2,29.81,ESE,119,1.2,1.2,91,0.00,FEW,,0.02,0.0,WeatherDisplay:10.37,2013-09-02 00:52:00,
2013-09-01 20:57:00,71.1,68.3,29.81,ESE,119,1.4,3.5,91,0.00,FEW,,0.02,0.0,WeatherDisplay:10.37,2013-09-02 00:57:00,
2013-09-01 21:02:00,71.1,68.3,29.81,ESE,119,1.1,3.5,91,0.00,FEW,,0.02,0.0,WeatherDisplay:10.37,2013-09-02 01:02:00,
2013-09-01 21:07:00,71.2,68.4,29.81,ESE,119,0.0,2.3,91,0.00,FEW,,0.02,0.0,WeatherDisplay:10.37,2013-09-02 01:07:00,
2013-09-01 21:12:00,71.2,68.4,29.82,ESE,119,0.0,0.0,91,0.00,FEW,,0.02,0.0,WeatherDisplay:10.37,2013-09-02 01:12:00,
2013-09-01 21:17:00,71.2,68.4,29.82,ESE,119,0.1,1.2,91,0.00,FEW,,0.02,0.0,WeatherDisplay:10.37,2013-09-02 01:17:00,
2013-09-01 21:22:00,71.3,68.5,29.82,ESE,119,0.1,1.2,91,0.00,FEW,,0.02,0.0,WeatherDisplay:10.37,2013-09-02 01:22:00,
2013-09-01 21:27:00,71.1,68.3,29.82,ESE,119,0.0,0.0,91,0.00,FEW,,0.02,0.0,WeatherDisplay:10.37,2013-09-02 01:27:00,
2013-09-01 21:32:00,70.9,68.1,29.82,ESE,119,0.1,1.2,91,0.00,FEW,,0.02,0.0,WeatherDisplay:10.37,2013-09-02 01:32:00,
2013-09-01 21:37:00,70.9,68.5,29.82,ESE,119,1.5,3.5,92,0.00,FEW,,0.02,0.0,WeatherDisplay:10.37,2013-09-02 01:37:00,
2013-09-01 21:42:00,70.9,68.5,29.82,ESE,119,0.1,1.2,92,0.00,FEW,,0.02,0.0,WeatherDisplay:10.37,2013-09-02 01:42:00,
2013-09-01 21:47:00,71.1,69.0,29.82,ESE,119,0.1,1.2,93,0.00,FEW,,0.02,0.0,WeatherDisplay:10.37,2013-09-02 01:47:00,
2013-09-01 21:52:00,71.1,68.7,29.82,ESE,119,0.0,0.0,92,0.00,FEW,,0.02,0.0,WeatherDisplay:10.37,2013-09-02 01:52:00,
2013-09-01 21:57:00,71.1,68.7,29.82,ESE,119,0.0,1.2,92,0.00,FEW,,0.02,0.0,WeatherDisplay:10.37,2013-09-02 01:57:00,
2013-09-01 22:02:00,71.0,68.6,29.83,ESE,119,0.0,0.0,92,0.00,FEW,,0.02,0.0,WeatherDisplay:10.37,2013-09-02 02:02:00,
2013-09-01 22:07:00,71.0,68.6,29.82,ESE,119,0.0,0.0,92,0.00,FEW,,0.02,0.0,WeatherDisplay:10.37,2013-09-02 02:07:00,
2013-09-01 22:12:00,71.0,68.6,29.82,ESE,119,0.6,2.3,92,0.00,FEW,,0.02,0.0,WeatherDisplay:10.37,2013-09-02 02:12:00,
2013-09-01 22:17:00,70.9,68.5,29.82,ESE,119,0.1,2.3,92,0.00,FEW,,0.02,0.0,WeatherDisplay:10.37,2013-09-02 02:17:00,
2013-09-01 22:22:00,70.9,68.5,29.82,ESE,119,1.6,3.5,92,0.00,FEW,,0.02,0.0,WeatherDisplay:10.37,2013-09-02 02:22:00,
2013-09-01 22:27:00,70.9,68.5,29.82,ESE,119,0.9,2.3,92,0.00,FEW,,0.02,0.0,WeatherDisplay:10.37,2013-09-02 02:27:00,
2013-09-01 22:32:00,71.0,68.6,29.82,ESE,119,3.4,5.0,92,0.00,FEW,,0.02,0.0,WeatherDisplay:10.37,2013-09-02 02:32:00,
2013-09-01 22:37:00,71.0,68.6,29.82,ESE,119,0.9,4.0,92,0.00,FEW,,0.02,0.0,WeatherDisplay:10.37,2013-09-02 02:37:00,
2013-09-01 22:42:00,71.1,68.7,29.82,ESE,119,1.8,3.5,92,0.00,FEW,,0.02,0.0,WeatherDisplay:10.37,2013-09-02 02:42:00,
2013-09-01 22:47:00,71.1,68.7,29.82,ESE,119,0.2,2.0,92,0.00,FEW,,0.02,0.0,WeatherDisplay:10.37,2013-09-02 02:47:00,
2013-09-01 22:52:00,71.1,68.7,29.82,ESE,119,0.6,2.3,92,0.00,FEW,,0.02,0.0,WeatherDisplay:10.37,2013-09-02 02:52:00,
2013-09-01 22:57:00,71.1,68.7,29.81,ESE,119,0.8,2.3,92,0.00,FEW,,0.02,0.0,WeatherDisplay:10.37,2013-09-02 02:57:00,
2013-09-01 23:02:00,71.1,68.7,29.81,ESE,119,0.1,1.0,92,0.00,FEW,,0.02,0.0,WeatherDisplay:10.37,2013-09-02 03:02:00,
2013-09-01 23:07:00,71.0,68.6,29.81,ESE,119,0.0,0.0,92,0.00,FEW,,0.02,0.0,WeatherDisplay:10.37,2013-09-02 03:07:00,
2013-09-01 23:12:00,70.9,68.5,29.81,ESE,119,0.0,0.0,92,0.00,FEW,,0.02,0.0,WeatherDisplay:10.37,2013-09-02 03:12:00,
2013-09-01 23:17:00,70.9,68.5,29.81,ESE,119,0.0,0.0,92,0.00,FEW,,0.02,0.0,WeatherDisplay:10.37,2013-09-02 03:17:00,
2013-09-01 23:22:00,70.9,68.8,29.81,ESE,119,0.0,0.0,93,0.00,FEW,,0.02,0.0,WeatherDisplay:10.37,2013-09-02 03:22:00,
2013-09-01 23:27:00,71.1,69.0,29.81,ESE,119,0.1,1.2,93,0.00,FEW,,0.02,0.0,WeatherDisplay:10.37,2013-09-02 03:27:00,
2013-09-01 23:32:00,71.2,69.1,29.80,ESE,119,0.0,0.0,93,0.00,FEW,,0.02,0.0,WeatherDisplay:10.37,2013-09-02 03:32:00,
2013-09-01 23:37:00,71.3,68.9,29.80,ESE,119,0.1,1.2,92,0.00,FEW,,0.02,0.0,WeatherDisplay:10.37,2013-09-02 03:37:00,
2013-09-01 23:42:00,71.3,68.9,29.80,SE,126,0.9,5.8,92,0.00,FEW,,0.02,0.0,WeatherDisplay:10.37,2013-09-02 03:42:00,
2013-09-01 23:47:00,71.4,69.0,29.80,ESE,123,0.4,3.5,92,0.00,FEW,,0.02,0.0,WeatherDisplay:10.37,2013-09-02 03:47:00,
2013-09-01 23:52:00,71.6,69.2,29.80,SE,125,0.2,2.3,92,0.00,FEW,,0.02,0.0,WeatherDisplay:10.37,2013-09-02 03:52:00,
2013-09-01 23:57:00,71.9,69.4,29.80,South,173,4.4,10.4,92,0.00,FEW,,0.02,0.0,WeatherDisplay:10.37,2013-09-02 03:57:00,